Location: Springfield
(37.2150°N, 93.2980°W)
Time: 08:53:38
(UTC-05:00)

Cosmos 1455 - Pass Details

Date: 19 April 2018
Orbit: 500 x 525 km, 82.5° (Epoch: 17 September)

Event Time Altitude Azimuth Distance (km) Brightness Sun altitude
Exits shadow 21:03:07 - 176° (S) 2,077 5.0 -14.1°
Reaches altitude 10° 21:03:57 10° 175° (S) 1,731 4.5 -14.2°
Maximum altitude 21:07:42 61° 95° (E) 590 2.1 -14.9°
Drops below altitude 10° 21:11:31 10° 14° (NNE) 1,760 5.1 -15.5°
Sets 21:13:41 0° 11° (NNE) 2,656 6.0 -15.9°
